ONEWEB-0269, 48987

Orbit data source: Space-Track

ONEWEB-0269, 48987 is a payload satellite owned by One Web (NAA) (UK) in LEO that was launched on Thu, 01 Jul 2021 UTC via a SOYUZ-2-1B launch vehicle from the Vostochny Cosmodrome (VOSTO). Payload-class satellites include a variety of spacecraft equipped with specific instruments for various scientific and technological missions. These include communications satellites like Starlink; space stations such as the ISS; scientific satellites like the Hubble; Earth observation satellites from companies like Planet Labs, Umbra, and HawkEye 360; GPS; miniature CubeSats for education and research; and military/defense satellites.

Loading next visibility...
Identifier
48987, 2021-060W
Orbit
LEO
Country
Flag of UKUK
Related business
Manufacturer
One Web
Mission
Operational Commercial Communications
Bus & Motor
ARROW, Unknown motor
Mass
148 kg wet, ~140 kg dry
Launch date (UTC)
2021-07-01 (4 years ago)
Launch vehicle
SOYUZ-2-1B
Launch site
Vostochny Cosmodrome (VOSTO)
Object type
Payload
Rocket body
Debris
Shape & HBR
Trap Box + 2 Pan, 6.7 m
Radar Cross Section
3.464 m², Medium (>0.1 m² and < 1m²)

Expand to show TLE details & history
Last TLE update: 20 hours ago

TLE from 20 hours ago
0 ONEWEB-0269
1 48987U 21060W   25348.79745867 -.00000433  00000-0 -11656-2 0  9993
2 48987  87.9036 265.5179 0001692  81.0823 279.0500 13.16594002215367
Epoch: 2025-12-14T19:08Z
TLE epoch observation values (Epoch: 2025-12-14T19:08:20.429Z)
Latitude
0.00006°
Longitude
-105.27244°
Altitude
1,200.453 km
Speed
7.254 km/s
True Right ascension
17h 42m 04s
True Declination
0° 00' 00"
Sunlit
Object was in daylight at epoch
Visualization orbit readout
Latitude
Unknown
Longitude
Unknown
Altitude
Unknown
Speed
Unknown
Apparent Right ascension
Unknown
Apparent Declination
Unknown
Sunlit
N/A
Visualization observer readout
Local Sidereal Time
13:18:45
Azimuth
Unknown
Elevation
Unknown
Doppler factor
Unknown
Orbital elements
Apogee altitude
1,196.149 km
Perigee altitude
1,193.587 km
Semi-major axis
7,573.005 km
Eccentricity
0.00017
Inclination
87.9036°
RAAN
265.5179°
Arg. of periapsis
81.0823°
True anomaly
279.03085°
Mean anomaly
279.05°
Eccentric anomaly
279.04043°
Mean motion
3.29337 °/min
Orbital period
109.31 mins
BSTAR
-0.0011656
Loading maneuver chart data...
Computing Atmospheric mass density...
Loading historical data...
Loading historical data...
Loading historical data...
Loading historical data...
Loading historical data...
Loading historical data...
Loading historical data...

Documentation

Showing up to 5 results
|